Regional Weather Roundup
Issued by NWS Charleston, SC

Current Version | Previous Version | Graphics & Text | Print | Product List | Glossary On
Versions: 1 2 3 4 5 6 7 8 9 10 11 12 13 14 15 16 17 18 19 20 21 22 23 24 25 26 27 28 29 30 31 32 33 34 35 36 37 38 39 40 41 42 43 44 45 46 47 48 49 50
000
ASUS42 KCHS 181710
RWRCHS
REGIONAL WEATHER ROUNDUP
NATIONAL WEATHER SERVICE CHARLESTON SC
100 PM EDT FRI APR 18 2014

NOTE: "FAIR" INDICATES FEW OR NO CLOUDS BELOW 12,000 FEET WITH NO
SIGNIFICANT WEATHER AND/OR OBSTRUCTIONS TO VISIBILITY.

NOT ALL STATIONS ARE QUALITY CONTROLLED BY THE NATIONAL
WEATHER SERVICE. USE DATA WITH CAUTION...ESPECIALLY
DEWPOINT OBSERVATIONS.

SCZ027-030-031-034>040-042>050-181800-
...SOUTH CAROLINA...

CITY           SKY/WX    TMP DP  RH WIND       PRES   REMARKS
N CHARLESTON   CLOUDY    69  51  52 NE13G20   30.24F
WATERFRONT PRK   N/A     63 N/A N/A NE26        N/A
FORT JOHNSON   NOT AVBL
MOUNT PLEASANT FAIR     N/A N/A N/A NE8G16    30.23F
JOHNS ISLAND   CLOUDY    63  55  77 NE23G29   30.23F
PINOPOLIS        N/A     63  52  67 NE14      30.20F
MONCKS CORNER  FAIR      66  54  63 NE12      30.25F HAZE
SUMMERVILLE    FAIR      66  52  59 N9G22     30.24F
BEAUFORT MCAS  LGT RAIN  60  53  77 E14       30.20F
BEAUFORT ARPT  PTSUNNY   61  55  82 NE21      30.19F
HILTON HEAD IS LGT RAIN  61  55  82 NE10G23   30.21F
GEORGETOWN     NOT AVBL
WALTERBORO     CLOUDY    63  50  63 NE9G16    30.24F
ORANGEBURG     CLOUDY    59  45  59 NE12G18   30.27F
BARNWELL       LGT RAIN  57  48  72 NE10      30.26F
AIKEN          LGT RAIN  55  50  82 NE13      30.32S
MANNING        FAIR      61  45  55 NE10G17   30.28F
KINGSTREE      NOT AVBL
COLUMBIA       CLOUDY    61  43  51 NE9       30.29F
SUMTER         CLOUDY    60  42  52 N16       30.29F
FLORENCE       CLOUDY    62  42  47 NE12      30.33F
MYRTLE BEACH   NOT AVBL
N MYRTLE BEACH NOT AVBL

$$

GAZ063-065-086>088-099>101-113>116-118-119-134-136>141-150-181800-
...GEORGIA...

CITY           SKY/WX    TMP DP  RH WIND       PRES   REMARKS
SAVANNAH ARPT  LGT RAIN  61  54  77 NE17      30.15F FOG
HUNTER AAF     RAIN      60  57  89 NE13G21   30.13F FOG
FORT STEWART   CLOUDY    60  59  96 NE16      30.12F
STATESBORO     NOT AVBL
SYLVANIA       LGT RAIN  58  53  84 NE9       30.22F
CLAXTON        LGT RAIN  57  55  94 NE9       30.17F
THOMSON        CLOUDY    55  50  85 NE9       30.31F
AUGUSTA-BUSH   LGT RAIN  57  48  72 NE10      30.27F
AUGUSTA-DANIEL LGT RAIN  56  49  77 NE13      30.27F
SWAINSBORO     RAIN      52  52 100 NE10G17   30.22S
VIDALIA        RAIN      54  52  94 NE15      30.17F
ALMA           LGT RAIN  57  55  93 NE6G17    30.10F FOG
WAYCROSS       NOT AVBL
JESUP          RAIN      59  59 100 E14       30.11F
BRUNSWICK      CLOUDY    63  61  94 NE20G25   30.08F
SAINT SIMONS   RAIN      63  62  97 NE21G29   30.07F FOG

$$

SCZ027-028-034-036>038-045-046-048>050-GAZ119-141-181800-
...LAKE AND SUPPLEMENTAL COASTAL OBSERVATIONS...

STATION/POSITION TIME  TEMP    WIND        PRES    WAVE   SWELL
                       AIR SEA DIR/SP/G            HT/PER HT/PER/DIR
                 (UTC) (F)     (DEG/KT/KT) (MB)    (FT/S) (FT/S/D)
UPR LAKE MARION  NOT AVBL
WINYAH BAY       1600   58      40/ 17     1026.0S
LAKE MURRAY      1600   56      30/  5/  9 1026.4F
ACE BASIN NERRS  1600   62      40/  7     1024.0S
FORT PULASKI     1700   60 59   30/ 18/ 21 1022.2S
SAPELO ISLAND    1600   61      40/ 20     1020.0F

$$

ANZ835-935-AMZ111-154-330-350-352-354-374-450-454-472-181800-
...C-MAN AND BUOY OBSERVATIONS...

STATION/POSITION TIME  TEMP    WIND        PRES    WAVE   SWELL
                       AIR SEA DIR/SP/G            HT/PER HT/PER/DIR
                 (UTC) (F)     (DEG/KT/KT) (MB)    (FT/S) (FT/S/D)
FOLLY BEACH CMAN 1600   58      40/ 24/ 28 1025.2F
BUOY 41004       NOT AVBL
BUOY 41008       1700   64 65   50/ 23/ 31 1018.4F   7/ 7   2/ 70/10
5E ST. MARYS GA  1700      64                N/A     5/11   2/ 80/11
FRYING PAN BUOY  1700   59 64   50/ 21/ 25 1024.8F   7/ 7   3/ 90/ 8
BUOY 41025       NOT AVBL
CAPE LOOKOUT NC  1600   55      30/ 20/ 24 1027.1F
BUOY 41002       NOT AVBL
BUOY 41010       1700   75 76  130/ 16/ 19 1019.1F   8/10   5/ 50/10
BUOY 41012       NOT AVBL
ST AUGUSTINE FL  1700   68     130/ 14/ 15 1017.5F
CAPERS NEARSHORE 1600           70/ 23/ 27   N/A
FRIPP NEARSHORE  1600   59      60/ 25/ 29   N/A


$$


USA.gov is the U.S. government's official web portal to all federal, state and local government web resources and services.